RH
73 61 43 31 26 22 20 21 23 24 24 24 23 24 24 24 24 23 23 23 23 22 20 19 17 16 15 16 12 13 12 11 11 13 17 21 24 26 28 28 28 28 28 28 28 28 27
83 83 72 54 40 33 27 25 21 20 22 25 25 24 25 24 24 24 23 22 22 21 19 18 18 18 19 21 12 13 13 13 15 19 21 23 27 30 31 30 30 29 31 32 32 31 32
85 84 82 75 63 48 43 38 33 26 23 22 21 22 23 23 23 23 22 22 22 22 20 19 18 21 22 13 11 11 12 12 16 21 22 24 26 30 33 32 31 33 36 35 34 34 35
96 92 87 84 82 74 59 53 49 42 36 30 26 24 23 21 20 19 19 22 23 25 24 27 27 28 27 18 16 15 16 15 15 17 19 23 26 29 31 31 32 35 38 41 36 37 37
98 97 96 95 94 86 83 71 63 56 54 52 44 38 33 31 30 30 31 32 35 39 38 41 43 42 37 30 28 27 25 28 27 24 22 26 27 31 34 37 40 40 45 45 45 39 38
96 98 95 96 98 99 96 92 86 83 79 75 73 68 64 57 55 49 49 53 55 58 60 57 52 51 42 40 37 36 36 33 35 35 39 36 33 35 39 40 46 49 49 48 47 43 41
98 99 98 95 98 99 98 99 99 98 95 94 91 90 84 84 84 81 77 80 76 75 68 62 58 49 43 42 43 39 37 37 38 41 41 43 45 43 38 42 45 49 49 48 47 47 46
95 97 99 97 98 96 96 97 98 98 98 96 94 96 95 95 95 94 91 88 83 82 75 68 64 59 57 56 48 44 45 48 47 48 46 44 46 47 47 51 52 52 52 50 48 49 49
95 96 92 94 97 97 97 97 96 96 98 98 95 99 98 98 96 94 92 89 91 90 83 64 62 55 56 58 53 50 57 54 52 52 53 52 47 48 50 52 55 54 55 54 54 51 48
95 94 88 89 93 94 96 94 96 95 95 96 97 98 97 99 98 98 95 96 98 95 87 62 58 49 49 53 52 47 50 56 55 49 55 53 50 50 53 54 57 55 55 54 54 57 58
85 85 81 83 84 85 89 94 96 94 93 95 98 97 98 99 97 97 94 96 97 97 94 56 54 50 50 51 48 42 47 56 56 56 57 51 52 54 56 53 59 55 60 61 62 65 63
83 81 79 71 73 74 76 81 89 92 93 95 98 96 97 97 96 94 93 95 98 99 85 58 56 56 55 53 51 45 51 55 57 61 56 52 55 55 52 53 55 59 64 67 67 68 70
84 92 80 67 66 62 63 61 65 79 82 90 97 98 97 96 93 96 96 96 99 97 60 57 53 54 54 54 54 51 55 59 62 66 61 58 53 54 57 60 61 65 69 84 83 85 68
91 90 84 76 65 58 54 55 52 54 58 63 76 94 97 98 92 92 92 95 96 66 59 55 56 53 55 55 57 59 56 63 60 59 60 68 63 56 50 49 57 63 72 83 86 83 71
90 88 85 73 69 63 54 52 49 52 57 65 81 89 82 83 86 94 92 99 76 57 55 56 58 60 53 50 59 64 63 59 58 61 64 65 60 49 49 47 55 60 69 63 79 84 91
88 84 82 74 67 64 65 59 56 59 61 71 84 91 82 81 88 93 97 93 78 66 63 59 64 60 61 53 59 68 70 58 60 58 62 62 66 51 45 48 55 61 63 82 85 88 92
75 72 67 65 73 79 78 73 70 64 63 82 77 78 89 99 99 99 98 94 77 67 67 69 64 64 63 60 61 60 62 58 56 57 64 61 64 57 50 48 54 66 75 83 88 88 87
94 87 90 84 83 78 82 83 81 77 75 75 82 84 96 99 99 98 93 97 81 76 73 77 78 72 68 70 75 70 65 62 56 56 62 63 72 69 60 55 56 59 72 79 89 94 94
78 77 80 84 80 85 81 87 95 89 88 89 91 87 92 90 96 98 85 92 92 89 84 94 93 86 83 79 87 83 73 72 73 64 68 68 77 71 64 67 66 70 71 76 80 86 94
66 64 62 68 76 76 79 81 89 95 94 95 94 93 91 96 97 98 99 98 99 92 92 98 97 92 93 91 84 87 93 90 86 80 72 77 75 69 70 72 75 81 76 76 77 88 87
48 48 49 52 54 57 63 71 78 86 85 91 93 94 94 97 98 98 97 98 96 98 98 98 97 98 96 96 95 98 89 88 88 95 94 95 97 86 81 78 81 81 85 86 83 82 92
43 38 39 37 43 47 48 53 53 60 68 72 83 81 88 91 94 95 95 98 97 97 94 97 97 98 99 99 98 98 97 97 86 87 94 95 96 89 96 84 84 88 86 78 74 70 73
43 42 40 36 33 32 37 45 47 49 51 52 57 68 75 85 83 87 86 95 96 95 92 93 94 95 97 97 98 97 98 96 93 93 93 95 94 94 92 80 86 97 74 65 68 70 64
46 49 46 42 37 34 30 30 34 42 47 48 49 54 60 68 75 75 75 79 82 84 92 93 92 87 91 92 95 95 95 94 91 89 90 92 95 91 88 79 94 56 50 50 52 52 53
35 41 45 43 39 37 30 27 26 27 40 47 48 48 50 57 59 61 66 68 71 75 79 77 77 79 83 88 93 91 93 92 83 78 84 87 93 97 97 89 75 71 44 54 58 49 43
51 48 41 47 48 42 35 30 25 24 26 38 42 46 49 53 58 58 62 65 66 73 74 66 65 68 78 89 86 93 94 96 90 85 80 84 90 98 97 96 90 56 51 51 56 62 44
54 61 58 48 44 53 53 41 33 28 28 35 40 39 43 44 52 56 56 56 55 60 65 67 73 76 79 88 90 85 77 79 88 88 84 96 95 95 92 98 93 73 67 61 75 64 59
35 55 70 67 53 38 52 54 43 35 30 32 43 46 44 43 42 44 44 47 49 50 55 57 68 72 76 81 84 82 84 75 73 70 73 84 96 96 92 93 96 87 81 89 90 76 67
62 46 49 71 77 54 37 50 50 40 35 30 39 45 48 46 41 39 43 44 49 56 57 59 61 63 72 74 74 79 76 76 72 75 61 72 72 84 90 85 87 88 85 84 86 87 86